Weather History for Courtland, AL

Change the Weather History Date:

Sunday, August 5, 2012

  Actual Average (KMSL) Record (KMSL)
Temperature  
Mean Temperature 80 °F 81 °F  
Max Temperature 87 °F 91 °F 104 °F (1934)
Min Temperature 73 °F 70 °F 52 °F (1915)
Degree Days  
Heating Degree Days 0 0  
Month to date heating degree days 0  
Since 1 June heating degree days 1  
Since 1 July heating degree days 0  
Cooling Degree Days 15 16  
Month to date cooling degree days 80  
Year to date cooling degree days 1163  
Since 1 June cooling degree days 919  
Growing Degree Days 30 (Base 50)    
Moisture  
Dew Point 73 °F    
Average Humidity 83    
Maximum Humidity 100    
Minimum Humidity 58    
Precipitation  
Precipitation 0.00 in 0.11 in 1.65 in (1911)
Month to date precipitation 0.53  
Year to date precipitation 33.09  
Snow  
Snow 0.00 in - - ()
Month to date snowfall  
Since 1 June snowfall  
Since 1 July snowfall  
Snow Depth -    
Sea Level Pressure  
Sea Level Pressure 30.13 in    
Wind  
Wind Speed 3 mph (South)    
Max Wind Speed 15 mph    
Max Gust Speed 20 mph    
Visibility 10 miles    
Events Rain    
T = Trace of Precipitation, MM = Missing Value Source: NWS Daily Summary

Daily Weather History Graph

Daily Weather History Graph

Search for Another Location

Airport:

Trip Planner

Search our weather history database for the weather conditions in past years. The results will help you decide how hot, cold, wet, or windy it might be!

Date:

Astronomy

Aug. 05, 2012 Rise Set
Actual Time 6:02 AM CDT 7:47 PM CDT
Civil Twilight 5:35 AM CDT 8:14 PM CDT
Nautical Twilight 5:02 AM CDT 8:47 PM CDT
Astronomical Twilight 4:27 AM CDT 9:22 PM CDT
Moon 9:39 PM CDT (8/5) 9:38 AM CDT (8/5)
Length of Visible Light 14h 39m
Length of Day
13h 44m
Waning Gibbous, 86% of the Moon is Illuminated
Aug 5
Waning Gibbous
Aug 9
Last Quarter
Aug 17
New
Aug 24
First Quarter
Aug 31
Full

Hourly Weather History & Observations

Time (CDT) Temp. Heat Index Dew Point Humidity Pressure Visibility Wind Dir Wind Speed Gust Speed Precip Events Conditions
12:15 AM 77.0 °F - 73.4 °F 89% 30.10 in 10.0 mi SSW 4.6 mph - N/A   Clear
12:35 AM 77.0 °F - 73.4 °F 89% 30.10 in 10.0 mi South 6.9 mph - N/A   Clear
12:55 AM 77.0 °F - 73.4 °F 89% 30.10 in 10.0 mi South 4.6 mph - N/A   Clear
1:15 AM 77.0 °F - 73.4 °F 89% 30.11 in 10.0 mi SSW 4.6 mph - N/A   Clear
1:35 AM 77.0 °F - 73.4 °F 89% 30.11 in 10.0 mi Calm Calm - N/A   Clear
1:55 AM 75.2 °F - 73.4 °F 94% 30.12 in 10.0 mi Calm Calm - N/A   Clear
2:15 AM 75.2 °F - 73.4 °F 94% 30.12 in 10.0 mi Calm Calm - N/A   Clear
2:35 AM 75.2 °F - 73.4 °F 94% 30.12 in 10.0 mi Calm Calm - N/A   Clear
2:55 AM 75.2 °F - 73.4 °F 94% 30.13 in 10.0 mi Calm Calm - N/A   Clear
3:15 AM 75.2 °F - 71.6 °F 89% 30.13 in 10.0 mi Calm Calm - N/A   Clear
3:35 AM 75.2 °F - 71.6 °F 89% 30.13 in 10.0 mi SE 4.6 mph - N/A   Clear
3:55 AM 75.2 °F - 71.6 °F 89% 30.13 in 10.0 mi ESE 4.6 mph - N/A   Clear
4:15 AM 75.2 °F - 71.6 °F 89% 30.13 in 10.0 mi SE 3.5 mph - N/A   Clear
4:35 AM 75.2 °F - 71.6 °F 89% 30.13 in 10.0 mi Calm Calm - N/A   Mostly Cloudy
4:55 AM 75.2 °F - 71.6 °F 89% 30.13 in 10.0 mi SSE 3.5 mph - N/A   Scattered Clouds
5:15 AM 75.2 °F - 71.6 °F 89% 30.13 in 10.0 mi Calm Calm - N/A   Clear
5:35 AM 75.2 °F - 71.6 °F 89% 30.12 in 10.0 mi South 3.5 mph - N/A   Clear
6:15 AM 73.4 °F - 71.6 °F 94% 30.13 in 10.0 mi South 4.6 mph - N/A   Clear
6:35 AM 75.2 °F - 71.6 °F 89% 30.13 in 10.0 mi South 5.8 mph - N/A   Clear
6:55 AM 75.2 °F - 71.6 °F 89% 30.13 in 10.0 mi South 5.8 mph - N/A   Clear
7:15 AM 77.0 °F - 71.6 °F 83% 30.13 in 10.0 mi South 8.1 mph - N/A   Clear
7:35 AM 77.0 °F - 71.6 °F 83% 30.14 in 10.0 mi Calm Calm - N/A   Clear
8:15 AM 77.0 °F - 71.6 °F 83% 30.17 in 10.0 mi South 4.6 mph - N/A   Scattered Clouds
8:35 AM 77.0 °F - 71.6 °F 83% 30.16 in 10.0 mi SSE 5.8 mph - N/A   Scattered Clouds
9:15 AM 78.8 °F - 71.6 °F 78% 30.18 in 10.0 mi SSW 3.5 mph - N/A   Scattered Clouds
9:35 AM 78.8 °F - 73.4 °F 83% 30.18 in 10.0 mi Calm Calm - N/A   Scattered Clouds
9:55 AM 78.8 °F - 73.4 °F 83% 30.19 in 10.0 mi Calm Calm - N/A   Mostly Cloudy
10:15 AM 78.8 °F - 73.4 °F 83% 30.18 in 10.0 mi South 6.9 mph - N/A   Overcast
10:35 AM 78.8 °F - 71.6 °F 78% 30.19 in 10.0 mi SSW 4.6 mph - N/A   Mostly Cloudy
10:55 AM 80.6 °F 84.6 °F 71.6 °F 74% 30.18 in 10.0 mi South 3.5 mph - N/A   Scattered Clouds
11:15 AM 82.4 °F 88.2 °F 73.4 °F 74% 30.18 in 10.0 mi SSE 5.8 mph - N/A   Scattered Clouds
11:35 AM 82.4 °F 88.2 °F 73.4 °F 74% 30.17 in 10.0 mi South 5.8 mph - N/A   Scattered Clouds
11:55 AM 86.0 °F 93.4 °F 73.4 °F 66% 30.16 in 10.0 mi SSW 6.9 mph - N/A   Clear
12:15 PM 86.0 °F 91.8 °F 71.6 °F 62% 30.16 in 10.0 mi SW 6.9 mph - N/A   Scattered Clouds
12:35 PM 86.0 °F 91.8 °F 71.6 °F 62% 30.15 in 10.0 mi WSW 8.1 mph - N/A   Scattered Clouds
12:55 PM 87.8 °F 93.8 °F 71.6 °F 58% 30.15 in 10.0 mi SSW 8.1 mph - N/A   Mostly Cloudy
1:15 PM 87.8 °F 93.8 °F 71.6 °F 58% 30.13 in 10.0 mi South 9.2 mph - N/A   Mostly Cloudy
1:35 PM 87.8 °F 93.8 °F 71.6 °F 58% 30.13 in 10.0 mi SSE 3.5 mph - N/A   Scattered Clouds
1:55 PM 87.8 °F 93.8 °F 71.6 °F 58% 30.14 in 10.0 mi WNW 15.0 mph 19.6 mph N/A   Mostly Cloudy
2:15 PM 78.8 °F - 71.6 °F 78% 30.14 in 2.5 mi West 6.9 mph - N/A Rain Heavy Rain
2:35 PM 77.0 °F - 73.4 °F 89% 30.14 in 10.0 mi WNW 4.6 mph - N/A Rain Light Rain
2:55 PM 77.0 °F - 73.4 °F 89% 30.13 in 10.0 mi Calm Calm - N/A Rain Light Rain
3:15 PM 78.8 °F - 73.4 °F 83% 30.13 in 10.0 mi Calm Calm - N/A   Scattered Clouds
3:35 PM 78.8 °F - 75.2 °F 89% 30.12 in 10.0 mi North 3.5 mph - N/A   Clear
4:15 PM 78.8 °F - 73.4 °F 83% 30.11 in 10.0 mi SE 4.6 mph - N/A   Clear
4:35 PM 78.8 °F - 73.4 °F 83% 30.10 in 10.0 mi East 4.6 mph - N/A   Clear
5:15 PM 80.6 °F 84.6 °F 71.6 °F 74% 30.09 in 10.0 mi Calm Calm - N/A   Clear
5:35 PM 80.6 °F 84.6 °F 71.6 °F 74% 30.09 in 10.0 mi Calm Calm - N/A   Clear
5:55 PM 80.6 °F 85.4 °F 73.4 °F 79% 30.09 in 10.0 mi North 4.6 mph - N/A   Clear
6:15 PM 80.6 °F 84.6 °F 71.6 °F 74% 30.09 in 10.0 mi North 4.6 mph - N/A   Clear
6:35 PM 80.6 °F 84.6 °F 71.6 °F 74% 30.08 in 10.0 mi Calm Calm - N/A   Clear
6:55 PM 80.6 °F 84.6 °F 71.6 °F 74% 30.08 in 10.0 mi Calm Calm - N/A   Clear
7:15 PM 78.8 °F - 71.6 °F 78% 30.08 in 10.0 mi Calm Calm - N/A   Clear
7:35 PM 78.8 °F - 75.2 °F 89% 30.08 in 10.0 mi Calm Calm - N/A   Clear
7:55 PM 78.8 °F - 73.4 °F 83% 30.09 in 10.0 mi Calm Calm - N/A   Clear
8:15 PM 78.8 °F - 75.2 °F 89% 30.09 in 10.0 mi Calm Calm - N/A   Clear
8:35 PM 77.0 °F - 75.2 °F 94% 30.10 in 10.0 mi Calm Calm - N/A   Clear
9:15 PM 75.2 °F - 73.4 °F 94% 30.12 in 7.0 mi Calm Calm - N/A   Clear
9:35 PM 75.2 °F - 73.4 °F 94% 30.13 in 7.0 mi Calm Calm - N/A   Clear
9:55 PM 75.2 °F - 73.4 °F 94% 30.14 in 7.0 mi Calm Calm - N/A   Clear
10:15 PM 75.2 °F - 73.4 °F 94% 30.14 in 7.0 mi Calm Calm - N/A   Scattered Clouds
10:35 PM 75.2 °F - 73.4 °F 94% 30.13 in 5.0 mi Calm Calm - N/A   Scattered Clouds
10:55 PM 73.4 °F - 73.4 °F 100% 30.13 in 5.0 mi Calm Calm - N/A   Clear
11:55 PM 75.2 °F - 73.4 °F 94% 30.12 in 5.0 mi Calm Calm - N/A   Overcast